CW3319 Weather Reports


Display with metric or nautical units.
time (UTC)temp
F
wind
direction
speed
MPH
gust
MPH
rain 1hr
in
rain 24hr
in
rain mn
in
humidity
%
barometer
mb
20260905170902 79 26 1.0 2.0 0.00 0.00 0.00 81 1014.8
20260905165933 78 103 2.0 3.0 0.00 0.00 0.00 84 1014.8
20260905164901 76 76 4.0 6.0 0.00 0.00 0.00 88 1015.0
20260905163902 74 36 1.0 2.0 0.00 0.00 0.00 91 1015.1
20260905162902 73 68 1.0 3.0 0.00 0.00 0.00 93 1015.1
20260905161902 72 111 1.0 2.0 0.00 0.00 0.00 94 1015.2
20260905160902 72 220 0.0 0.0 0.00 0.00 0.00 94 1015.0
20260905155902 72 306 0.0 0.0 0.00 0.00 0.00 94 1015.0
20260905154903 72 73 5.0 9.0 0.00 0.00 0.00 95 1014.5
20260905153901 71 67 5.0 8.0 0.00 0.00 0.00 96 1014.5
20260905152903 71 61 3.0 4.0 0.00 0.00 0.00 96 1014.6
20260905151903 71 64 3.0 4.0 0.00 0.00 0.00 96 1014.6
20260905150902 71 66 6.0 8.0 0.00 0.00 0.00 96 1014.5
20260905145902 70 76 3.0 6.0 0.00 0.00 0.00 96 1014.5
20260905144902 70 58 2.0 3.0 0.00 0.00 0.00 96 1014.5
20260905143901 70 56 3.0 4.0 0.00 0.00 0.00 96 1014.6
20260905142903 70 64 2.0 3.0 0.00 0.00 0.00 96 1014.6
20260905141902 70 65 0.0 0.0 0.00 0.00 0.00 96 1014.6
20260905140903 70 63 1.0 3.0 0.00 0.00 0.00 97 1014.6
20260905135903 70 76 3.0 4.0 0.00 0.00 0.00 97 1014.5
20260905134902 70 60 0.0 2.0 0.00 0.00 0.00 96 1014.5
20260905133902 69 73 2.0 5.0 0.00 0.00 0.00 96 1014.3
20260905132932 69 69 0.0 0.0 0.00 0.00 0.00 96 1014.1
20260905131902 69 53 1.0 2.0 0.00 0.00 0.00 96 1013.8
20260905130902 69 72 4.0 6.0 0.00 0.00 0.00 96 1013.5
20260905125903 69 71 5.0 8.0 0.00 0.00 0.00 96 1013.2
20260905124902 69 64 3.0 5.0 0.00 0.00 0.00 96 1012.9
20260905123902 69 59 3.0 5.0 0.00 0.00 0.00 96 1012.9
20260905122902 69 44 1.0 2.0 0.00 0.00 0.00 96 1013.0
20260905121902 69 59 2.0 4.0 0.00 0.00 0.00 96 1013.1
20260905120932 69 22 1.0 2.0 0.00 0.00 0.00 96 1013.0
20260905115902 73 42 0.0 0.0 0.00 0.00 0.00 95 1006.6
20260905114902 73 42 0.0 0.0 0.00 0.00 0.00 95 1006.6
20260905113902 73 42 0.0 0.0 0.00 0.00 0.00 95 1006.6
20260905112902 73 42 0.0 0.0 0.00 0.00 0.00 95 1006.6
20260905111902 73 42 0.0 0.0 0.00 0.00 0.00 95 1006.6
20260905110902 73 42 0.0 0.0 0.00 0.00 0.00 95 1006.6
20260905105902 73 42 0.0 0.0 0.00 0.00 0.00 95 1006.6
20260905104901 73 42 0.0 0.0 0.00 0.00 0.00 95 1006.6
20260905103902 73 42 0.0 0.0 0.00 0.00 0.00 95 1006.6
20260905102902 73 42 0.0 0.0 0.00 0.00 0.00 95 1006.6
20260905101901 73 42 0.0 0.0 0.00 0.00 0.00 95 1006.6
20260905100902 73 42 0.0 0.0 0.00 0.00 0.00 95 1006.6
20260905095902 73 42 0.0 0.0 0.00 0.00 0.00 95 1006.6
20260905094902 73 42 0.0 0.0 0.00 0.00 0.00 95 1006.6
20260905093901 73 42 0.0 0.0 0.00 0.00 0.00 95 1006.6
20260905092902 73 42 0.0 0.0 0.00 0.00 0.00 95 1006.6
20260905091902 73 42 0.0 0.0 0.00 0.00 0.00 95 1006.6
20260905090902 73 42 0.0 0.0 0.00 0.00 0.00 95 1006.6
20260905085902 73 42 0.0 0.0 0.00 0.00 0.00 95 1006.6
20260905084902 73 42 0.0 0.0 0.00 0.00 0.00 95 1006.6
20260905083902 73 42 0.0 0.0 0.00 0.00 0.00 95 1006.6
20260905082932 73 42 0.0 0.0 0.00 0.00 0.00 95 1006.6
20260905081902 73 42 0.0 0.0 0.00 0.00 0.00 95 1006.6
20260905080901 73 42 0.0 0.0 0.00 0.00 0.00 95 1006.6
20260905075902 73 42 0.0 0.0 0.00 0.00 0.00 95 1006.6
20260905074902 73 42 0.0 0.0 0.00 0.00 0.00 95 1006.6
20260905073902 73 42 0.0 0.0 0.00 0.00 0.00 95 1006.6
20260905072902 73 42 0.0 0.0 0.00 0.00 0.00 95 1006.6
20260905071902 73 42 0.0 0.0 0.00 0.00 0.00 95 1006.6
20260905070902 73 42 0.0 0.0 0.00 0.00 0.00 95 1006.6
20260905065901 73 42 0.0 0.0 0.00 0.00 0.00 95 1006.6
20260905064902 73 42 0.0 0.0 0.00 0.00 0.00 95 1006.6
20260905063902 73 42 0.0 0.0 0.00 0.00 0.00 95 1006.6
20260905062902 73 42 0.0 0.0 0.00 0.00 0.00 95 1006.6
20260905061902 73 42 0.0 0.0 0.00 0.00 0.00 95 1006.6
20260905060902 73 42 0.0 0.0 0.00 0.00 0.00 95 1006.6
20260905055902 73 42 0.0 0.0 0.00 0.00 0.00 95 1006.6
20260905054902 73 42 0.0 0.0 0.00 0.00 0.00 95 1006.6
20260905053901 73 42 0.0 0.0 0.00 0.00 0.00 95 1006.6
20260905052902 73 42 0.0 0.0 0.00 0.00 0.00 95 1006.6
20260905050902 73 42 0.0 0.0 0.00 0.00 0.00 95 1006.6
20260905045901 73 42 0.0 0.0 0.00 0.00 0.00 95 1006.6
20260905044902 73 42 0.0 0.0 0.00 0.00 0.00 95 1006.6
20260905043902 73 42 0.0 0.0 0.00 0.00 0.00 95 1006.6
20260905042902 73 42 0.0 0.0 0.00 0.00 0.00 95 1006.6
20260905041901 73 42 0.0 0.0 0.00 0.00 0.00 95 1006.6
20260905040902 73 42 0.0 0.0 0.00 0.00 0.00 95 1006.6
20260905035902 73 42 0.0 0.0 0.00 0.00 0.00 95 1006.6
20260905034902 73 42 0.0 0.0 0.00 0.00 0.00 95 1006.6
20260905033902 73 42 0.0 0.0 0.00 0.00 0.00 95 1006.6
20260905032932 73 42 0.0 0.0 0.00 0.00 0.00 95 1006.6
20260905031901 73 42 0.0 0.0 0.00 0.00 0.00 95 1006.6
20260905030902 73 42 0.0 0.0 0.00 0.00 0.00 95 1006.6
20260905025932 73 42 0.0 0.0 0.00 0.00 0.00 95 1006.6
20260905024902 73 42 0.0 0.0 0.00 0.00 0.00 95 1006.6
20260905023902 73 42 0.0 0.0 0.00 0.00 0.00 95 1006.6
20260905022901 73 42 0.0 0.0 0.00 0.00 0.00 95 1006.6
20260905021902 73 42 0.0 0.0 0.00 0.00 0.00 95 1006.6
20260905020902 73 42 0.0 0.0 0.00 0.00 0.00 95 1006.6
20260905015902 73 42 0.0 0.0 0.00 0.00 0.00 95 1006.6
20260905014902 73 42 0.0 0.0 0.00 0.00 0.00 95 1006.6
20260905013902 73 42 0.0 0.0 0.00 0.00 0.00 95 1006.6
20260905012902 73 42 0.0 0.0 0.00 0.00 0.00 95 1006.6
20260905011901 73 42 0.0 0.0 0.00 0.00 0.00 95 1006.6
20260905010902 73 42 0.0 0.0 0.00 0.00 0.00 95 1006.6
20260905005902 73 42 0.0 0.0 0.00 0.00 0.00 95 1006.6
20260905004902 73 42 0.0 0.0 0.00 0.00 0.00 95 1006.6
20260905003901 73 42 0.0 0.0 0.00 0.00 0.00 95 1006.6
20260905002902 73 42 0.0 0.0 0.00 0.00 0.00 95 1006.6
20260905001902 73 42 0.0 0.0 0.00 0.00 0.00 95 1006.6
20260905000902 73 42 0.0 0.0 0.00 0.00 0.00 95 1006.6
20260904235902 73 42 0.0 0.0 0.00 0.00 0.00 95 1006.6
20260904234902 73 42 0.0 0.0 0.00 0.00 0.00 95 1006.6
20260904233901 73 42 0.0 0.0 0.00 0.00 0.00 95 1006.6
20260904232902 73 42 0.0 0.0 0.00 0.00 0.00 95 1006.6
20260904231902 73 42 0.0 0.0 0.00 0.00 0.00 95 1006.6
20260904230902 73 42 0.0 0.0 0.00 0.00 0.00 95 1006.6
20260904225902 73 42 0.0 0.0 0.00 0.00 0.00 95 1006.6
20260904224902 73 42 0.0 0.0 0.00 0.00 0.00 95 1006.6
20260904223902 73 42 0.0 0.0 0.00 0.00 0.00 95 1006.6
20260904222901 73 42 0.0 0.0 0.00 0.00 0.00 95 1006.6
20260904222002 73 42 0.0 0.0 0.00 0.00 0.00 95 1006.6
20260904220902 73 42 0.0 0.0 0.00 0.00 0.00 95 1006.6
20260904215932 73 42 0.0 0.0 0.00 0.00 0.00 95 1006.6
20260904214932 73 42 0.0 0.0 0.00 0.00 0.00 95 1006.6
20260904213902 73 42 0.0 0.0 0.00 0.00 0.00 95 1006.6
20260904212902 73 42 0.0 0.0 0.00 0.00 0.00 95 1006.6
20260904211932 73 42 0.0 0.0 0.00 0.00 0.00 95 1006.6
20260904210902 73 42 0.0 0.0 0.00 0.00 0.00 95 1006.6
20260904205902 73 42 0.0 0.0 0.00 0.00 0.00 95 1006.6
20260904204902 73 42 0.0 0.0 0.00 0.00 0.00 95 1006.6
20260904203902 73 42 0.0 0.0 0.00 0.00 0.00 95 1006.6
20260904202902 73 42 0.0 0.0 0.00 0.00 0.00 95 1006.6
20260904201902 73 42 0.0 0.0 0.00 0.00 0.00 95 1006.6
20260904201002 73 42 0.0 0.0 0.00 0.00 0.00 95 1006.6
20260904195902 73 42 0.0 0.0 0.00 0.00 0.00 95 1006.6
20260904194902 73 42 0.0 0.0 0.00 0.00 0.00 95 1006.6
20260904193902 73 42 0.0 0.0 0.00 0.00 0.00 95 1006.6
20260904192901 73 42 0.0 0.0 0.00 0.00 0.00 95 1006.6
20260904191902 73 42 0.0 0.0 0.00 0.00 0.00 95 1006.6
20260904190902 73 42 0.0 0.0 0.00 0.00 0.00 95 1006.6
20260904185902 73 42 0.0 0.0 0.00 0.00 0.00 95 1006.6
20260904184901 73 42 0.0 0.0 0.00 0.00 0.00 95 1006.6
20260904183902 73 42 0.0 0.0 0.00 0.00 0.00 95 1006.6
20260904182902 73 42 0.0 0.0 0.00 0.00 0.00 95 1006.6
20260904181902 73 42 0.0 0.0 0.00 0.00 0.00 95 1006.6
20260904180902 73 42 0.0 0.0 0.00 0.00 0.00 95 1006.6
20260904175902 73 42 0.0 0.0 0.00 0.00 0.00 95 1006.6
20260904174902 73 42 0.0 0.0 0.00 0.00 0.00 95 1006.6
20260904173902 73 42 0.0 0.0 0.00 0.00 0.00 95 1006.6
20260904172902 73 42 0.0 0.0 0.00 0.00 0.00 95 1006.6
20260904171903 73 42 0.0 0.0 0.00 0.00 0.00 95 1006.6